GW6227 Weather Reports


Display with metric or nautical units.
time (UTC)temp
F
wind
direction
speed
MPH
gust
MPH
rain 1hr
in
rain 24hr
in
rain mn
in
humidity
%
barometer
mb
20260508115453 83 315 3.0 5.0 0.00 0.00 0.00 86 1013.9
20260508114953 83 45 8.0 8.0 0.00 0.00 0.00 86 1013.9
20260508114454 83 45 6.0 8.0 0.00 0.00 0.00 86 1013.5
20260508113955 83 68 5.0 10.0 0.00 0.00 0.00 85 1013.5
20260508113454 83 68 5.0 6.0 0.00 0.00 0.00 84 1013.2
20260508112954 83 45 6.0 7.0 0.00 0.00 0.00 84 1013.2
20260508112454 83 90 5.0 6.0 0.00 0.00 0.00 83 1013.5
20260508111953 83 68 7.0 10.0 0.00 0.00 0.00 84 1013.2
20260508111453 83 45 5.0 7.0 0.00 0.00 0.00 84 1012.9
20260508110953 83 90 7.0 11.0 0.00 0.00 0.00 84 1013.2
20260508110453 83 68 4.0 7.0 0.00 0.00 0.00 84 1013.2
20260508105953 83 68 5.0 7.0 0.00 0.00 0.00 83 1013.2
20260508105453 83 113 7.0 9.0 0.00 0.00 0.00 83 1012.9
20260508104953 83 45 6.0 8.0 0.00 0.00 0.00 83 1012.9
20260508104453 83 68 5.0 7.0 0.00 0.00 0.00 83 1012.9
20260508103953 84 68 5.0 5.0 0.00 0.00 0.00 82 1012.9
20260508103454 84 90 6.0 8.0 0.00 0.00 0.00 82 1012.9
20260508102953 84 45 5.0 7.0 0.00 0.00 0.00 82 1012.9
20260508102454 84 113 5.0 7.0 0.00 0.00 0.00 82 1012.5
20260508101953 84 23 5.0 6.0 0.00 0.00 0.00 81 1012.5
20260508101453 84 45 7.0 7.0 0.00 0.00 0.00 81 1012.5
20260508100954 84 68 5.0 5.0 0.00 0.00 0.00 80 1012.5
20260508100454 84 68 8.0 10.0 0.00 0.00 0.00 80 1012.5
20260508095953 84 68 9.0 12.0 0.00 0.00 0.00 80 1012.5
20260508095453 85 90 7.0 7.0 0.00 0.00 0.00 80 1012.2
20260508094954 85 68 8.0 8.0 0.00 0.00 0.00 80 1012.2
20260508094453 85 23 6.0 8.0 0.00 0.00 0.00 79 1011.9
20260508093953 85 68 9.0 10.0 0.00 0.00 0.00 79 1011.9
20260508093453 85 68 7.0 10.0 0.00 0.00 0.00 80 1011.9
20260508092953 85 68 9.0 10.0 0.00 0.00 0.00 80 1011.9
20260508092454 85 113 9.0 12.0 0.00 0.00 0.00 81 1011.9
20260508091954 85 90 7.0 10.0 0.00 0.00 0.00 80 1011.9
20260508091454 86 68 9.0 11.0 0.00 0.00 0.00 79 1011.5
20260508090953 86 68 8.0 12.0 0.00 0.00 0.00 78 1011.5
20260508090453 86 68 10.0 13.0 0.00 0.00 0.00 77 1011.5
20260508085953 86 68 8.0 10.0 0.00 0.00 0.00 77 1011.2
20260508085453 86 68 6.0 8.0 0.00 0.00 0.00 77 1011.2
20260508084954 87 45 10.0 13.0 0.00 0.00 0.00 77 1011.2
20260508084455 87 45 12.0 15.0 0.00 0.00 0.00 76 1011.2
20260508083953 87 68 13.0 17.0 0.00 0.00 0.00 76 1011.2
20260508083453 88 90 7.0 10.0 0.00 0.00 0.00 77 1011.2
20260508082953 88 68 11.0 13.0 0.00 0.00 0.00 75 1010.8
20260508082455 88 45 10.0 13.0 0.00 0.00 0.00 76 1010.8
20260508081953 88 68 9.0 12.0 0.00 0.00 0.00 74 1010.8
20260508081453 88 45 11.0 15.0 0.00 0.00 0.00 73 1011.2
20260508080953 89 68 9.0 12.0 0.00 0.00 0.00 71 1010.8
20260508080453 89 68 9.0 11.0 0.00 0.00 0.00 72 1011.2
20260508075953 89 45 9.0 17.0 0.00 0.00 0.00 70 1010.8
20260508075454 89 68 14.0 18.0 0.00 0.00 0.00 70 1010.8
20260508074953 89 68 9.0 12.0 0.00 0.00 0.00 72 1010.5
20260508074454 89 90 9.0 10.0 0.00 0.00 0.00 71 1010.8
20260508073954 90 68 10.0 13.0 0.00 0.00 0.00 71 1010.8
20260508073453 90 158 8.0 12.0 0.00 0.00 0.00 71 1010.8
20260508072953 90 113 5.0 8.0 0.00 0.00 0.00 71 1010.8
20260508072453 88 68 6.0 7.0 0.00 0.00 0.00 72 1010.8
20260508071953 89 68 6.0 7.0 0.00 0.00 0.00 73 1010.8
20260508071453 90 68 12.0 19.0 0.00 0.00 0.00 69 1010.8
20260508070953 92 68 6.0 9.0 0.00 0.00 0.00 68 1010.8
20260508070453 91 90 5.0 7.0 0.00 0.00 0.00 69 1010.8
20260508065953 91 23 13.0 17.0 0.00 0.00 0.00 69 1011.2
20260508065453 91 45 4.0 6.0 0.00 0.00 0.00 69 1010.8
20260508064953 91 113 11.0 13.0 0.00 0.00 0.00 68 1010.8
20260508064453 91 90 13.0 19.0 0.00 0.00 0.00 65 1010.8
20260508063958 92 68 11.0 15.0 0.00 0.00 0.00 64 1010.8
20260508063453 92 68 3.0 5.0 0.00 0.00 0.00 68 1010.8
20260508062953 91 90 8.0 10.0 0.00 0.00 0.00 67 1010.8
20260508062453 92 90 8.0 10.0 0.00 0.00 0.00 67 1010.8
20260508061954 92 68 7.0 11.0 0.00 0.00 0.00 65 1010.8
20260508061454 92 68 12.0 13.0 0.00 0.00 0.00 66 1011.2
20260508060954 92 45 7.0 8.0 0.00 0.00 0.00 65 1011.2
20260508060453 93 45 9.0 10.0 0.00 0.00 0.00 64 1011.2
20260508055953 92 68 9.0 13.0 0.00 0.00 0.00 65 1011.5
20260508055453 94 68 3.0 4.0 0.00 0.00 0.00 64 1011.2
20260508054953 93 23 4.0 5.0 0.00 0.00 0.00 66 1011.2
20260508054453 94 90 6.0 7.0 0.00 0.00 0.00 66 1011.2
20260508053955 92 90 8.0 10.0 0.00 0.00 0.00 65 1011.9
20260508053453 94 68 4.0 7.0 0.00 0.00 0.00 62 1011.9
20260508052953 93 45 8.0 10.0 0.00 0.00 0.00 65 1011.9
20260508052454 92 90 10.0 13.0 0.00 0.00 0.00 65 1011.9
20260508051956 93 68 5.0 7.0 0.00 0.00 0.00 65 1011.9
20260508051454 92 135 7.0 9.0 0.00 0.00 0.00 67 1011.9
20260508050953 93 68 7.0 9.0 0.00 0.00 0.00 65 1011.9
20260508050453 94 68 2.0 4.0 0.00 0.00 0.00 64 1012.2
20260508045953 93 68 5.0 6.0 0.00 0.00 0.00 63 1011.9
20260508045453 93 68 7.0 10.0 0.00 0.00 0.00 67 1012.2
20260508044953 92 45 9.0 14.0 0.00 0.00 0.00 67 1012.2
20260508044454 92 113 6.0 8.0 0.00 0.00 0.00 68 1012.5
20260508043953 92 68 9.0 10.0 0.00 0.00 0.00 69 1012.5
20260508043455 92 68 7.0 8.0 0.00 0.00 0.00 67 1012.5
20260508042953 93 90 8.0 10.0 0.00 0.00 0.00 64 1012.9
20260508042454 92 90 10.0 10.0 0.00 0.00 0.00 67 1012.9
20260508041953 92 0 7.0 11.0 0.00 0.00 0.00 68 1012.9
20260508041453 92 45 7.0 9.0 0.00 0.00 0.00 66 1012.9
20260508040953 93 90 7.0 12.0 0.00 0.00 0.00 66 1012.9
20260508040454 92 68 12.0 16.0 0.00 0.00 0.00 67 1012.9
20260508035954 93 45 3.0 4.0 0.00 0.00 0.00 67 1012.9
20260508035453 92 68 8.0 11.0 0.00 0.00 0.00 65 1013.2
20260508034954 92 68 6.0 7.0 0.00 0.00 0.00 68 1013.2
20260508034453 92 113 7.0 8.0 0.00 0.00 0.00 67 1013.2
20260508033953 93 68 4.0 7.0 0.00 0.00 0.00 64 1013.2
20260508033453 92 45 5.0 6.0 0.00 0.00 0.00 69 1013.2
20260508032953 93 90 3.0 4.0 0.00 0.00 0.00 68 1013.2
20260508032453 91 90 9.0 15.0 0.00 0.00 0.00 69 1013.2
20260508031954 91 90 7.0 10.0 0.00 0.00 0.00 69 1013.2
20260508031454 92 68 6.0 7.0 0.00 0.00 0.00 69 1013.2
20260508030953 92 45 6.0 10.0 0.00 0.00 0.00 68 1013.2
20260508030453 93 90 6.0 9.0 0.00 0.00 0.00 68 1013.5
20260508025953 94 23 3.0 5.0 0.00 0.00 0.00 66 1013.5
20260508025453 91 90 5.0 7.0 0.00 0.00 0.00 70 1013.5
20260508024953 91 68 8.0 10.0 0.00 0.00 0.00 69 1013.5
20260508024456 91 90 9.0 13.0 0.00 0.00 0.00 69 1013.5
20260508023953 91 45 9.0 11.0 0.00 0.00 0.00 70 1013.5
20260508023453 92 135 4.0 5.0 0.00 0.00 0.00 68 1013.5
20260508022953 91 90 5.0 7.0 0.00 0.00 0.00 70 1013.9
20260508022453 90 45 9.0 15.0 0.00 0.00 0.00 71 1013.9
20260508021954 91 68 6.0 7.0 0.00 0.00 0.00 69 1013.9
20260508021454 90 45 6.0 8.0 0.00 0.00 0.00 71 1014.2
20260508020953 90 90 8.0 11.0 0.00 0.00 0.00 71 1013.9
20260508020453 90 90 9.0 11.0 0.00 0.00 0.00 68 1013.9
20260508015953 90 45 9.0 13.0 0.00 0.00 0.00 70 1013.9
20260508015453 90 90 11.0 20.0 0.00 0.00 0.00 69 1013.9
20260508014954 90 68 7.0 10.0 0.00 0.00 0.00 69 1013.9
20260508014454 90 68 10.0 13.0 0.00 0.00 0.00 70 1014.2
20260508013953 90 45 6.0 9.0 0.00 0.00 0.00 72 1013.9
20260508013453 89 68 9.0 10.0 0.00 0.00 0.00 71 1013.9
20260508012953 91 68 10.0 13.0 0.00 0.00 0.00 70 1013.9
20260508012453 91 113 3.0 4.0 0.00 0.00 0.00 70 1013.9
20260508011954 89 90 7.0 10.0 0.00 0.00 0.00 72 1013.9
20260508011453 89 68 12.0 13.0 0.00 0.00 0.00 71 1014.2
20260508010956 89 135 6.0 8.0 0.00 0.00 0.00 73 1013.9
20260508010454 89 68 3.0 5.0 0.00 0.00 0.00 72 1013.9
20260508005954 89 45 7.0 9.0 0.00 0.00 0.00 72 1013.9
20260508005453 89 68 6.0 7.0 0.00 0.00 0.00 73 1014.2
20260508004954 89 90 10.0 15.0 0.00 0.00 0.00 72 1014.2
20260508004453 89 90 5.0 8.0 0.00 0.00 0.00 73 1013.9
20260508003954 89 45 9.0 10.0 0.00 0.00 0.00 73 1014.2
20260508003453 88 90 8.0 10.0 0.00 0.00 0.00 74 1014.2
20260508002954 88 90 7.0 10.0 0.00 0.00 0.00 74 1014.2
20260508002453 87 45 6.0 9.0 0.00 0.00 0.00 74 1014.2
20260508001954 88 68 8.0 12.0 0.00 0.00 0.00 73 1014.2
20260508001453 88 45 7.0 9.0 0.00 0.00 0.00 74 1014.2
20260508000953 88 90 4.0 8.0 0.00 0.00 0.00 74 1014.2
20260508000453 88 113 5.0 5.0 0.00 0.00 0.00 73 1013.9
20260507235954 88 45 5.0 6.0 0.00 0.00 0.00 74 1013.9
20260507235453 87 90 7.0 10.0 0.00 0.00 0.00 74 1013.9
20260507234953 88 113 4.0 6.0 0.00 0.00 0.00 73 1013.9
20260507234453 88 68 7.0 8.0 0.00 0.00 0.00 73 1013.9
20260507233953 87 68 6.0 9.0 0.00 0.00 0.00 73 1013.5
20260507233453 87 68 8.0 10.0 0.00 0.00 0.00 73 1013.9
20260507232954 87 135 6.0 8.0 0.00 0.00 0.00 73 1013.5
20260507232453 86 68 5.0 7.0 0.00 0.00 0.00 74 1013.5
20260507231953 86 90 6.0 7.0 0.00 0.00 0.00 76 1013.5
20260507231453 86 45 9.0 11.0 0.00 0.00 0.00 76 1013.5
20260507230953 86 68 11.0 13.0 0.00 0.00 0.00 75 1013.5
20260507230453 85 90 7.0 8.0 0.00 0.00 0.00 78 1013.5
20260507225953 85 68 7.0 10.0 0.00 0.00 0.00 79 1013.5
20260507225453 85 45 14.0 17.0 0.00 0.00 0.00 79 1013.5
20260507224955 85 45 7.0 9.0 0.00 0.00 0.00 79 1013.2
20260507224453 85 45 6.0 7.0 0.00 0.00 0.00 80 1013.5
20260507223953 84 45 6.0 8.0 0.00 0.00 0.00 79 1013.2
20260507223453 84 68 5.0 7.0 0.00 0.00 0.00 80 1013.2
20260507222953 84 68 9.0 11.0 0.00 0.00 0.00 80 1013.2
20260507222453 84 68 6.0 7.0 0.00 0.00 0.00 80 1013.2
20260507221953 83 68 6.0 8.0 0.00 0.00 0.00 81 1013.2
20260507221453 83 68 9.0 13.0 0.00 0.00 0.00 81 1013.2
20260507220953 82 68 2.0 2.0 0.00 0.00 0.00 83 1012.9
20260507220453 81 45 4.0 5.0 0.00 0.00 0.00 84 1012.9
20260507215953 81 135 1.0 2.0 0.00 0.00 0.00 85 1012.9
20260507215456 81 45 1.0 2.0 0.00 0.00 0.00 86 1012.9
20260507214956 81 90 2.0 3.0 0.00 0.00 0.00 85 1012.9
20260507214455 81 90 0.0 1.0 0.00 0.00 0.00 85 1012.9
20260507213953 81 68 1.0 2.0 0.00 0.00 0.00 84 1012.5
20260507213453 81 68 5.0 6.0 0.00 0.00 0.00 84 1012.5
20260507212959 81 90 3.0 4.0 0.00 0.00 0.00 84 1012.2
20260507212453 82 90 4.0 7.0 0.00 0.00 0.00 84 1012.2
20260507211954 82 68 4.0 5.0 0.00 0.00 0.00 84 1012.2
20260507211454 82 68 5.0 6.0 0.00 0.00 0.00 83 1012.5
20260507210954 82 90 4.0 5.0 0.00 0.00 0.00 83 1012.2
20260507210453 82 68 5.0 7.0 0.00 0.00 0.00 83 1012.5
20260507205954 82 68 6.0 7.0 0.00 0.00 0.00 82 1012.2
20260507205454 82 68 9.0 10.0 0.00 0.00 0.00 83 1012.5
20260507204953 82 23 7.0 9.0 0.00 0.00 0.00 84 1012.5
20260507204454 82 68 3.0 4.0 0.00 0.00 0.00 83 1012.5
20260507203953 82 90 8.0 9.0 0.00 0.00 0.00 83 1012.5
20260507203453 82 68 7.0 11.0 0.00 0.00 0.00 83 1012.2
20260507202953 81 338 6.0 7.0 0.00 0.00 0.00 83 1012.5
20260507202454 81 90 8.0 10.0 0.00 0.00 0.00 84 1012.5
20260507201953 81 45 5.0 6.0 0.00 0.00 0.00 82 1012.5
20260507201453 81 68 5.0 7.0 0.00 0.00 0.00 84 1012.2
20260507200955 81 23 3.0 5.0 0.00 0.00 0.00 84 1012.5
20260507200453 81 68 4.0 6.0 0.00 0.00 0.00 83 1012.5
20260507195953 81 45 3.0 5.0 0.00 0.00 0.00 84 1012.5
20260507195453 81 90 3.0 4.0 0.00 0.00 0.00 84 1012.2
20260507194953 81 45 6.0 7.0 0.00 0.00 0.00 85 1012.2
20260507194453 81 45 4.0 5.0 0.00 0.00 0.00 85 1012.2
20260507193953 81 23 5.0 7.0 0.00 0.00 0.00 85 1012.2
20260507193454 81 68 6.0 8.0 0.00 0.00 0.00 85 1012.2
20260507192953 81 45 5.0 7.0 0.00 0.00 0.00 85 1012.2
20260507192454 81 90 5.0 5.0 0.00 0.00 0.00 85 1012.2
20260507191953 81 23 5.0 7.0 0.00 0.00 0.00 85 1012.2
20260507191453 81 68 7.0 8.0 0.00 0.00 0.00 86 1012.2
20260507190953 81 68 7.0 10.0 0.00 0.00 0.00 86 1012.2
20260507190453 81 90 7.0 8.0 0.00 0.00 0.00 85 1012.2
20260507185953 81 68 6.0 8.0 0.00 0.00 0.00 85 1012.2
20260507185454 81 90 4.0 5.0 0.00 0.00 0.00 85 1011.9
20260507184954 81 90 4.0 6.0 0.00 0.00 0.00 86 1012.2
20260507184454 81 45 5.0 6.0 0.00 0.00 0.00 86 1012.2
20260507183953 81 68 6.0 7.0 0.00 0.00 0.00 85 1012.2
20260507183453 81 68 7.0 13.0 0.00 0.00 0.00 85 1011.9
20260507182954 81 68 9.0 13.0 0.00 0.00 0.00 85 1012.2
20260507182453 81 68 2.0 2.0 0.00 0.00 0.00 83 1012.2
20260507181953 82 68 5.0 6.0 0.00 0.00 0.00 83 1012.2
20260507181454 82 23 7.0 10.0 0.00 0.00 0.00 83 1012.5
20260507180953 81 68 5.0 6.0 0.00 0.00 0.00 83 1012.5
20260507180453 81 68 4.0 9.0 0.00 0.00 0.00 84 1012.2
20260507175953 81 68 2.0 3.0 0.00 0.00 0.00 85 1012.5
20260507175453 81 90 3.0 4.0 0.00 0.00 0.00 85 1012.5
20260507174954 81 45 6.0 7.0 0.00 0.00 0.00 84 1012.5
20260507174453 81 90 7.0 9.0 0.00 0.00 0.00 84 1012.5
20260507173953 81 68 6.0 10.0 0.00 0.00 0.00 84 1012.9
20260507173453 81 45 7.0 8.0 0.00 0.00 0.00 85 1012.5
20260507172953 81 90 12.0 16.0 0.00 0.00 0.00 85 1012.5
20260507172453 81 68 6.0 7.0 0.00 0.00 0.00 85 1012.5
20260507171953 81 68 5.0 5.0 0.00 0.00 0.00 84 1012.5
20260507171453 82 45 6.0 7.0 0.00 0.00 0.00 84 1012.2
20260507170953 82 68 9.0 10.0 0.00 0.00 0.00 84 1012.5
20260507170453 81 45 6.0 7.0 0.00 0.00 0.00 85 1012.5
20260507165953 82 338 9.0 10.0 0.00 0.00 0.00 84 1012.5
20260507165453 82 68 8.0 12.0 0.00 0.00 0.00 84 1012.5
20260507164953 82 90 10.0 13.0 0.00 0.00 0.00 84 1012.9
20260507164453 82 68 6.0 7.0 0.00 0.00 0.00 84 1012.9
20260507163954 82 68 7.0 9.0 0.00 0.00 0.00 84 1012.5
20260507163453 82 45 7.0 8.0 0.00 0.00 0.00 84 1012.5
20260507162953 82 45 6.0 8.0 0.00 0.00 0.00 83 1012.5
20260507162453 82 68 8.0 10.0 0.00 0.00 0.00 83 1012.5
20260507161953 81 90 5.0 5.0 0.00 0.00 0.00 84 1012.9
20260507161453 82 45 7.0 9.0 0.00 0.00 0.00 84 1012.9
20260507160954 82 45 7.0 8.0 0.00 0.00 0.00 84 1012.9
20260507160453 82 90 5.0 7.0 0.00 0.00 0.00 85 1012.9
20260507155953 81 68 5.0 7.0 0.00 0.00 0.00 85 1012.9
20260507155454 82 68 7.0 9.0 0.00 0.00 0.00 85 1013.2
20260507154953 82 45 7.0 9.0 0.00 0.00 0.00 84 1012.9
20260507154453 82 68 10.0 12.0 0.00 0.00 0.00 83 1012.9
20260507153954 82 113 4.0 7.0 0.00 0.00 0.00 84 1013.2
20260507153453 82 68 8.0 10.0 0.00 0.00 0.00 83 1013.2
20260507152953 82 68 6.0 8.0 0.00 0.00 0.00 84 1013.2
20260507152454 82 158 7.0 9.0 0.00 0.00 0.00 83 1013.5
20260507151954 82 90 3.0 4.0 0.00 0.00 0.00 83 1013.2
20260507151454 82 68 7.0 10.0 0.00 0.00 0.00 83 1013.5
20260507150953 82 68 6.0 7.0 0.00 0.00 0.00 83 1013.5
20260507150453 82 45 3.0 5.0 0.00 0.00 0.00 83 1013.5
20260507145954 82 68 5.0 7.0 0.00 0.00 0.00 82 1013.2
20260507145453 82 68 6.0 9.0 0.00 0.00 0.00 82 1013.5
20260507144954 82 68 7.0 9.0 0.00 0.00 0.00 83 1013.5
20260507144453 82 68 6.0 7.0 0.00 0.00 0.00 83 1013.5
20260507143955 82 68 2.0 2.0 0.00 0.00 0.00 84 1013.9
20260507143453 82 90 7.0 10.0 0.00 0.00 0.00 83 1013.5
20260507142954 82 68 2.0 3.0 0.00 0.00 0.00 83 1013.9
20260507142453 83 68 7.0 9.0 0.00 0.00 0.00 82 1013.9
20260507141953 83 68 6.0 9.0 0.00 0.00 0.00 80 1013.9
20260507141454 83 45 7.0 9.0 0.00 0.00 0.00 82 1013.9
20260507140954 83 68 8.0 10.0 0.00 0.00 0.00 82 1013.9
20260507140453 83 68 7.0 14.0 0.00 0.00 0.00 81 1013.5
20260507135953 83 68 8.0 10.0 0.00 0.00 0.00 80 1013.9
20260507135453 83 45 9.0 11.0 0.00 0.00 0.00 81 1013.9
20260507134954 83 45 9.0 12.0 0.00 0.00 0.00 81 1013.5
20260507134453 83 68 8.0 10.0 0.00 0.00 0.00 82 1013.9
20260507133955 83 90 7.0 8.0 0.00 0.00 0.00 82 1013.9
20260507133453 83 90 6.0 7.0 0.00 0.00 0.00 82 1013.5
20260507132953 83 45 3.0 7.0 0.00 0.00 0.00 82 1013.5
20260507132453 83 68 7.0 9.0 0.00 0.00 0.00 83 1013.5
20260507131953 83 90 6.0 8.0 0.00 0.00 0.00 82 1013.2
20260507131453 83 45 7.0 10.0 0.00 0.00 0.00 83 1013.2
20260507130954 83 68 3.0 4.0 0.00 0.00 0.00 83 1013.2
20260507130454 82 68 5.0 5.0 0.00 0.00 0.00 83 1013.2
20260507125953 83 90 5.0 8.0 0.00 0.00 0.00 84 1013.2
20260507125454 82 90 6.0 7.0 0.00 0.00 0.00 84 1013.2
20260507124953 82 90 2.0 2.0 0.00 0.00 0.00 84 1013.2
20260507124454 82 90 4.0 6.0 0.00 0.00 0.00 84 1013.2
20260507123954 81 68 3.0 4.0 0.00 0.00 0.00 87 1013.2
20260507123454 81 90 2.0 2.0 0.00 0.00 0.00 87 1012.9
20260507122955 81 68 2.0 2.0 0.00 0.00 0.00 89 1012.9
20260507122453 81 0 1.0 2.0 0.00 0.00 0.00 89 1012.9
20260507121953 81 90 3.0 4.0 0.00 0.00 0.00 88 1012.9
20260507121455 81 90 4.0 7.0 0.00 0.00 0.00 88 1012.9
20260507120955 81 45 2.0 2.0 0.00 0.00 0.00 87 1012.9
20260507120453 81 90 2.0 2.0 0.00 0.00 0.00 86 1012.9
20260507115954 82 90 3.0 3.0 0.00 0.00 0.00 86 1012.9